Location: Siloam Springs
(36.1881°N, 94.5403°W)
Time: 09:23:00
(UTC-05:00)

RS-15 - Pass Details

Date: 30 May 2024
Orbit: 1896 x 2148 km, 64.8° (Epoch: 19 June)

Event Time Altitude Azimuth Distance (km) Brightness Sun altitude
Rises 00:21:23 0° 328° (NNW) 5,347 11.4 -30.6°
Reaches altitude 10° 00:24:41 10° 327° (NNW) 4,326 10.6 -30.7°
Maximum altitude 00:35:37 76° 245° (WSW) 1,948 7.8 -31.2°
Enters shadow 00:38:18 57° 179° (S) 2,166 7.8 -31.3°
